Weather History for Joplin, MO

Change the Weather History Date:

Sunday, March 17, 2013

  Actual Average Record
Temperature  
Mean Temperature 40 °F 49 °F  
Max Temperature 43 °F 60 °F 82 °F (1982)
Min Temperature 37 °F 38 °F 16 °F (1906)
Degree Days  
Heating Degree Days 25 16  
Month to date heating degree days 351 313  
Since 1 July heating degree days 3467 3567  
Cooling Degree Days 0 0  
Month to date cooling degree days 0 0  
Year to date cooling degree days 1 1  
Moisture  
Dew Point 38 °F    
Average Humidity 93    
Maximum Humidity 100    
Minimum Humidity 85    
Precipitation  
Precipitation 0.17 in 0.11 in 1.33 in (1987)
Month to date precipitation 1.17 1.78  
Year to date precipitation 6.32 6.13  
Snow  
Snow 0.00 in - - ()
Month to date snowfall T  
Snow Depth 0.00 in    
Sea Level Pressure  
Sea Level Pressure 29.84 in    
Wind  
Wind Speed 10 mph (ENE)    
Max Wind Speed 20 mph    
Max Gust Speed 30 mph    
Visibility 6 miles    
Events Rain , Thunderstorm    
T = Trace of Precipitation, MM = Missing Value Source: NWS Daily Summary

Daily Weather History Graph

Daily Weather History Graph

Search for Another Location

Airport:

Trip Planner

Search our weather history database for the weather conditions in past years. The results will help you decide how hot, cold, wet, or windy it might be!

Date:

Astronomy

Mar. 17, 2013 Rise Set
Actual Time 7:25 AM CDT 7:27 PM CDT
Civil Twilight 6:59 AM CDT 7:53 PM CDT
Nautical Twilight 6:29 AM CDT 8:23 PM CDT
Astronomical Twilight 5:58 AM CDT 8:54 PM CDT
Moon 10:46 AM CDT (3/17) 12:28 AM CDT (3/17)
Length of Visible Light 12h 53m
Length of Day
12h 01m
Waxing Crescent, 31% of the Moon is Illuminated
Mar 17
Waxing Crescent
Mar 19
First Quarter
Mar 27
Full
Apr 2
Last Quarter
Apr 10
New

Hourly Weather History & Observations

Time (CDT) Temp. Windchill Dew Point Humidity Pressure Visibility Wind Dir Wind Speed Gust Speed Precip Events Conditions
12:06 AM 42.8 °F 36.2 °F 35.6 °F 76% 29.92 in 8.0 mi NE 12.7 mph - 0.00 in Rain , Thunderstorm Light Rain
12:17 AM 42.8 °F 36.2 °F 35.6 °F 76% 29.92 in 8.0 mi NE 12.7 mph 26.5 mph 0.00 in Thunderstorm Overcast
12:36 AM 42.8 °F 35.1 °F 35.6 °F 76% 29.91 in 7.0 mi NE 16.1 mph 23.0 mph 0.00 in Rain , Thunderstorm Light Thunderstorms and Rain
12:53 AM 41.0 °F 32.8 °F 36.0 °F 82% 29.91 in 6.0 mi NE 16.1 mph - 0.00 in Rain , Thunderstorm Light Rain
1:01 AM 39.2 °F 31.6 °F 35.6 °F 87% 29.92 in 5.0 mi NE 12.7 mph - 0.01 in Rain Light Rain
1:25 AM 39.2 °F 31.6 °F 37.4 °F 93% 29.92 in 6.0 mi NNE 12.7 mph 20.7 mph 0.02 in   Overcast
1:53 AM 39.0 °F 31.4 °F 37.0 °F 93% 29.91 in 6.0 mi NE 12.7 mph 21.9 mph 0.02 in   Overcast
2:17 AM 39.2 °F 32.0 °F 35.6 °F 87% 29.94 in 9.0 mi NE 11.5 mph 23.0 mph 0.00 in Rain , Thunderstorm Light Rain
2:40 AM 39.2 °F 30.5 °F 35.6 °F 87% 29.93 in 8.0 mi NNE 16.1 mph 21.9 mph 0.00 in   Overcast
2:53 AM 39.0 °F 31.8 °F 36.0 °F 89% 29.92 in 9.0 mi NE 11.5 mph 27.6 mph 0.00 in   Overcast
3:53 AM 37.9 °F 30.0 °F 36.0 °F 93% 29.90 in 10.0 mi NE 12.7 mph 21.9 mph N/A   Overcast
4:53 AM 37.9 °F 29.6 °F 35.1 °F 89% 29.91 in 10.0 mi NE 13.8 mph 20.7 mph 0.00 in   Overcast
5:00 AM 37.4 °F 28.5 °F 35.6 °F 93% 29.91 in 10.0 mi NE 15.0 mph 20.7 mph N/A Thunderstorm Thunderstorm
5:35 AM 37.4 °F 27.8 °F 35.6 °F 93% 29.92 in 10.0 mi NE 17.3 mph 26.5 mph 0.00 in Rain Light Rain
5:51 AM 37.4 °F 27.5 °F 35.6 °F 93% 29.90 in 10.0 mi ENE 18.4 mph 29.9 mph 0.00 in Rain Light Rain
5:53 AM 37.0 °F 27.7 °F 35.1 °F 93% 29.91 in 10.0 mi ENE 16.1 mph 29.9 mph 0.00 in Rain Light Rain
6:01 AM 37.4 °F 29.8 °F 35.6 °F 93% 29.94 in 8.0 mi NE 11.5 mph 25.3 mph 0.01 in Rain , Thunderstorm Light Rain
6:18 AM 37.4 °F 28.9 °F 35.6 °F 93% 29.92 in 3.0 mi ENE 13.8 mph 19.6 mph 0.06 in Rain , Thunderstorm Rain
6:34 AM 37.4 °F 29.8 °F 35.6 °F 93% 29.94 in 4.0 mi ENE 11.5 mph 18.4 mph 0.09 in Rain Light Rain
6:53 AM 37.0 °F 29.3 °F 35.1 °F 93% 29.93 in 5.0 mi ENE 11.5 mph 19.6 mph 0.10 in Rain Light Rain
7:53 AM 37.0 °F 29.8 °F 35.1 °F 93% 29.93 in 10.0 mi ENE 10.4 mph 19.6 mph 0.00 in   Overcast
8:36 AM 37.4 °F 29.3 °F 35.6 °F 93% 29.91 in 10.0 mi ENE 12.7 mph 18.4 mph 0.00 in Rain Light Rain
8:53 AM 37.9 °F 30.0 °F 36.0 °F 93% 29.91 in 9.0 mi ENE 12.7 mph 19.6 mph 0.00 in Rain Light Rain
9:53 AM 37.9 °F 30.0 °F 36.0 °F 93% 29.91 in 10.0 mi ENE 12.7 mph 18.4 mph 0.00 in   Overcast
10:38 AM 39.2 °F 32.0 °F 35.6 °F 87% 29.89 in 9.0 mi ENE 11.5 mph 20.7 mph N/A   Overcast
10:53 AM 39.0 °F 31.4 °F 36.0 °F 89% 29.90 in 9.0 mi East 12.7 mph - N/A   Overcast
11:53 AM 39.0 °F 32.8 °F 37.0 °F 93% 29.86 in 5.0 mi ENE 9.2 mph 19.6 mph N/A   Overcast
12:53 PM 39.9 °F 33.9 °F 39.0 °F 97% 29.86 in 3.0 mi ENE 9.2 mph - 0.00 in Rain Light Rain
12:56 PM 39.2 °F 33.0 °F 37.4 °F 93% 29.85 in 2.0 mi NE 9.2 mph - 0.00 in Rain Light Rain
1:25 PM 39.2 °F 33.6 °F 39.2 °F 100% 29.83 in 1.2 mi ENE 8.1 mph - 0.02 in Rain Light Rain
1:48 PM 41.0 °F 34.3 °F 39.2 °F 93% 29.80 in 2.5 mi ENE 11.5 mph - 0.03 in Rain Light Rain
1:53 PM 41.0 °F 34.3 °F 39.9 °F 96% 29.81 in 3.0 mi ENE 11.5 mph - 0.04 in Rain Light Rain
2:53 PM 42.1 °F 34.9 °F 39.9 °F 92% 29.77 in 10.0 mi East 13.8 mph 21.9 mph 0.00 in Rain Light Rain
3:18 PM 42.8 °F 37.5 °F 39.2 °F 87% 29.76 in 2.0 mi East 9.2 mph - 0.00 in Rain Light Rain
3:28 PM 42.8 °F 37.5 °F 39.2 °F 87% 29.74 in 2.0 mi East 9.2 mph - 0.00 in Rain Light Rain
3:53 PM 42.1 °F 34.2 °F 41.0 °F 96% 29.73 in 3.0 mi East 16.1 mph 21.9 mph 0.00 in Rain Light Rain
4:04 PM 42.8 °F 35.1 °F 39.2 °F 87% 29.70 in 9.0 mi East 16.1 mph 24.2 mph 0.00 in   Overcast
4:19 PM 42.8 °F 35.8 °F 39.2 °F 87% 29.71 in 10.0 mi East 13.8 mph 23.0 mph 0.00 in   Overcast
4:53 PM 43.0 °F 39.5 °F 39.9 °F 89% 29.73 in 10.0 mi Variable 5.8 mph - 0.00 in   Overcast
5:53 PM 42.1 °F 35.2 °F 39.9 °F 92% 29.72 in 10.0 mi East 12.7 mph - N/A   Overcast
6:14 PM 42.8 °F 37.5 °F 39.2 °F 87% 29.71 in 2.5 mi ESE 9.2 mph - 0.00 in Rain Light Rain
6:38 PM 42.8 °F 40.1 °F 39.2 °F 87% 29.71 in 2.5 mi East 4.6 mph - 0.01 in   Overcast
6:53 PM 42.1 °F 37.1 °F 39.9 °F 92% 29.73 in 2.5 mi East 8.1 mph - 0.01 in   Overcast
7:50 PM 41.0 °F 37.1 °F 41.0 °F 100% 29.71 in 3.0 mi East 5.8 mph - 0.00 in   Overcast
7:53 PM 41.0 °F 35.2 °F 39.9 °F 96% 29.72 in 3.0 mi East 9.2 mph - 0.00 in   Overcast
8:53 PM 41.0 °F 35.8 °F 39.9 °F 96% 29.71 in 6.0 mi East 8.1 mph - 0.01 in   Overcast
9:53 PM 41.0 °F 36.4 °F 39.9 °F 96% 29.72 in 8.0 mi ESE 6.9 mph - N/A   Overcast
10:53 PM 41.0 °F - 39.9 °F 96% 29.74 in 6.0 mi Calm Calm - N/A   Overcast
11:13 PM 41.0 °F 39.0 °F 39.2 °F 93% 29.72 in 2.5 mi SE 3.5 mph - N/A   Overcast
11:53 PM 41.0 °F - 41.0 °F 100% 29.74 in 2.0 mi Calm Calm - N/A   Overcast